Location: Caltech
(34.1382°N, 118.1253°W)
Time: 11:15:47
(UTC-07:00)

ITAMSAT 1 - Visible Passes

Search period start: 23 July 2014 00:00
Search period end: 02 August 2014 00:00
Orbit: 785 x 798 km, 98.7° (Epoch: 23 July)

Date Brightness Start Highest point End Pass type
(mag) Time Alt. Az. Time Alt. Az. Time Alt. Az.
23 Jul 9.8 01:59:41 10° NE 02:02:22 17° E 02:02:22 17° E visible
23 Jul 8.0 03:37:46 10° N 03:42:42 46° WNW 03:43:07 45° W visible
24 Jul 7.5 03:08:31 10° NNE 03:13:37 87° NNE 03:13:37 87° NNE visible
25 Jul 8.5 02:39:39 10° NNE 02:44:08 44° E 02:44:08 44° E visible
25 Jul 9.2 04:20:14 10° NNW 04:23:43 19° WNW 04:24:53 17° W visible
26 Jul 9.5 02:11:21 10° NE 02:14:38 22° E 02:14:38 22° E visible
26 Jul 8.4 03:50:15 10° N 03:54:54 35° WNW 03:55:23 34° W visible
27 Jul 10.3 01:44:43 10° ENE 01:45:08 11° E 01:45:08 11° E visible
27 Jul 7.6 03:20:49 10° N 03:25:53 69° WNW 03:25:53 69° WNW visible
28 Jul 8.1 02:51:48 10° NNE 02:56:23 57° ENE 02:56:23 57° ENE visible
28 Jul 9.5 04:33:14 10° NNW 04:35:51 14° WNW 04:37:08 13° W visible
29 Jul 9.2 02:23:14 10° NE 02:26:53 29° E 02:26:53 29° E visible
29 Jul 8.8 04:02:49 10° NNW 04:07:06 27° WNW 04:07:38 26° W visible
30 Jul 10.0 01:55:32 10° ENE 01:57:23 14° E 01:57:23 14° E visible
30 Jul 7.9 03:33:12 10° N 03:38:08 51° WNW 03:38:08 51° WNW visible
31 Jul 7.8 03:04:01 10° NNE 03:08:38 70° NE 03:08:38 70° NE visible
31 Jul 9.8 04:47:05 10° NW 04:47:57 10° WNW 04:48:50 10° WNW visible
01 Aug 8.8 02:35:14 10° NNE 02:39:08 37° ENE 02:39:08 37° ENE visible
01 Aug 9.1 04:15:31 10° NNW 04:19:15 21° WNW 04:19:53 20° WNW visible
